UTMN 2 (RS27S)

Last updated on Sat Mar 14 2026 00:03:16 GMT+0000 (Coordinated Universal Time)

1 57203U 23091AP 26072.62821944 .00015545 00000+0 54318-3 0 9998 2 57203 97.5194 138.6544 0009538 64.4775 295.7451 15.29612274149920
UTC large
Height (km)
Speed (km/s)
/
Latitude / Longitude
Inclination (degrees)
Orbital Period (minutes)
Azimuth
Elevation
Range (km)
Doppler Factor

Next 0 passes for location: London (51.5072 / 0.1276)

Sorry there are no passes over London.